Showing default

TIANHUI 5A, 58199

Orbit data source: Space-Track

TIANHUI 5A, 58199 is a payload satellite owned by G. Cehui dili (CN) in SSO that was launched on Tue, 31 Oct 2023 UTC via a CHANG ZHENG 6A launch vehicle from the Taiyaun Space Center, China (TSC). Payload-class satellites include a variety of spacecraft equipped with specific instruments for various scientific and technological missions. These include communications satellites like Starlink; space stations such as the ISS; scientific satellites like the Hubble; Earth observation satellites from companies like Planet Labs, Umbra, and HawkEye 360; GPS; miniature CubeSats for education and research; and military/defense satellites.

Loading next visibility...
Identifier
58199, 2023-168A
Orbit
SSO
Last TLE update
1 day ago
Origin
Manufacturer
DFH
Mission
Operational Civil Radar Imaging
Bus & Motor
CAST-2000?, Unknown motor
Mass
~1,000 kg wet, ~1,000 kg dry
Launch date (UTC)
2023-10-31 (2 years ago)
Launch vehicle
CHANG ZHENG 6A
Launch site
Taiyaun Space Center, China (TSC)
Object type
Payload
Rocket body
Debris
Shape & HBR
Box + 2 Pan, 6 m
Radar Cross Section
8.157 m², Large (>1 m²)

Expand to show TLE details & history

TLE from 1 day ago
0 TIANHUI 5A
1 58199U 23168A   25186.79853804  .00000498  00000-0  60806-4 0  9993
2 58199  97.8216 194.1474 0002170 100.3734 259.7727 14.87577335 91105
Epoch: 2025-07-05T19:09Z
TLE epoch observation values (Epoch: 2025-07-05T19:09:53.686Z)
Latitude
-0.00003°
Longitude
-17.3577°
Altitude
608.811 km
Speed
7.555 km/s
True Right ascension
12h 56m 35s
True Declination
0° 00' 00"
Sunlit
Object was in daylight at epoch
Visualization orbit readout
Latitude
-76.37178°
Longitude
18.05417°
Altitude
634.538 km
Speed
7.539 km/s
Apparent Right ascension
20h 56m 42s
Apparent Declination
-66° 18' 17"
Sunlit
Object is in full shadow
Visualization observer readout
Local Sidereal Time
10:15:25
Azimuth
163.588° S
Elevation
-61.377°
Doppler factor
1
Orbital elements
Apogee altitude
604.05 km
Perigee altitude
601.02 km
Semi-major axis
6,980.672 km
Eccentricity
0.00022
Inclination
97.8216°
RAAN
194.1474°
Arg. of periapsis
100.3734°
True anomaly
Unknown
Mean anomaly
259.7727°
Eccentric anomaly
Unknown
Mean motion
3.72132 °/min
Orbital period
96.74 mins
BSTAR
0.000060806
Loading maneuver chart data...
Loading SW <> Apogee altitude chart data...
Loading historical data...
Loading historical data...
Loading historical data...
Loading historical data...
Loading historical data...
Loading historical data...
Loading historical data...
Other satellites on launch #168 in the year 2023 (2023-10-31 UTC)

TIANHUI 5A Visibility forecast

Observer location: undefined°, undefined°

Span
Click to sort rows by Start time (UTC) header in descending order
Start Az.
Max El. time (UTC)
Max El. Az.
Max El.
End time (UTC)
End Az.
8 mins2025-07-07 00:20:19.508Z157.59° S2025-07-07 00:24:19.508Z78.052° E42.956°2025-07-07 00:28:19.508Z353.175° N
6 mins2025-07-07 13:43:19.508Z353.67° N2025-07-07 13:45:19.508Z301.14° NW38.88°2025-07-07 13:49:19.508Z209.977° SW
|